[[{"header":{"parameterUnit":"m.s-1","parameterCategory":1,"la1":30.2991,"la2":30.254,"lo1":-89.0895,"lo2":-89.0444,"dy":0.0017,"dx":0.0017,"nx":28,"ny":28,"refTime":"2024-07-04T09:00:00:Z","depth":0,"parameterNumber":2,"parameterNumberName":"U-component_of_WINDS"},"data":[0,0,0,0,0,0,0,0,0,0,0,0,0,0,0,0,0,0,0,0,0,0,0,0,0,0,0,0,0,0,0,0,0,0,0,0,0,0,0,0,0,0,0,0,0,0,0,0,0,0,0,0,0,0,0,0,0,0,2.7345,2.7346,0,2.7462,2.7463,2.7465,2.7394,2.739,2.7387,2.7384,2.751,2.7517,2.7523,0,0,0,0,0,0,0,0,0,0,0,0,0,2.7065,2.7071,2.7345,2.7346,2.7348,2.7462,2.7463,2.7465,2.7394,2.739,2.7386,2.7382,2.7508,2.7516,2.7524,0,0,0,0,0,0,0,0,0,0,0,0,0,2.7185,2.7073,2.7345,2.7326,2.7326,2.7461,2.7463,2.7465,2.7395,2.739,2.7385,2.738,2.7506,2.7515,2.7525,2.7687,0,0,2.7555,2.7559,0,0,0,0,0,0,0,0,2.7179,2.7196,2.7327,2.7328,2.7327,2.7408,2.7411,2.754,2.7397,2.7369,2.7384,2.7378,2.7481,2.7492,2.7526,2.7693,2.7699,2.7556,2.7562,2.7566,2.7569,0,0,0,0,0,0,0,2.717,2.719,2.7391,2.733,2.733,2.7314,2.7325,2.7435,2.7452,2.7371,2.7366,2.7381,2.748,2.7516,2.7528,2.77,2.7555,2.7564,2.757,2.7574,2.8006,2.8011,0,0,0,0,0,0,2.7163,2.7184,2.7388,2.7395,2.7239,2.7323,2.7336,2.7387,2.7451,2.7456,2.7385,2.7377,2.7502,2.7517,2.7532,2.7726,2.7566,2.7575,2.7581,2.8,2.8007,2.8013,0,0,0,0,0,0,2.7157,2.7181,2.7383,2.7288,2.7312,2.7333,2.7392,2.7392,2.7429,2.7461,2.7464,2.7419,2.7499,2.7519,2.7648,2.7729,2.7579,2.7588,2.7993,2.8002,2.801,2.8114,0,0,0,0,0,0,2.7149,2.718,2.7241,2.729,2.7318,2.7496,2.7397,2.7398,2.7445,2.7436,2.7494,2.7499,2.7496,2.7634,2.7658,2.774,2.7596,2.7986,2.7997,2.8007,2.8104,2.8125,2.8143,0,0,0,0,0,2.7139,2.7267,2.7244,2.7269,2.7394,2.7501,2.7517,2.751,2.7452,2.7514,2.7534,2.7497,2.7716,2.7648,2.7675,2.776,2.7981,2.7994,2.8006,2.8095,2.8121,2.8143,0,0,0,0,0,0,2.723,2.7274,2.7248,2.7396,2.7445,2.7488,2.7567,2.7538,2.7606,2.7595,2.7585,2.7599,2.7734,2.776,2.7683,2.792,2.784,2.7858,2.7898,2.7923,2.7943,2.7934,2.7604,0,0,0,0,0,2.7267,2.7348,2.7382,2.7509,2.7535,2.7547,2.7593,2.7582,2.7634,2.7655,2.7685,2.7738,2.7819,2.7872,2.7948,2.8107,2.8118,2.8179,2.8199,2.8215,2.8231,2.8316,2.8343,2.8054,2.8054,2.8054,0,0,2.7345,2.7378,2.7431,2.7528,2.7565,2.7651,2.7565,2.766,2.7723,2.767,2.7794,2.7818,2.7876,2.802,2.8086,2.8047,2.8313,2.8231,2.8243,2.8251,2.8332,2.8359,2.8383,2.8063,2.8061,2.806,0,0,2.753,2.7563,2.7672,2.771,2.7765,2.7772,2.7798,2.7846,2.7859,2.7982,2.7943,2.802,2.8159,2.8202,2.8242,2.844,2.8409,2.8466,2.857,2.8653,2.8676,2.8696,2.8766,2.8792,2.8482,2.8482,2.8482,0,2.762,2.7746,2.7732,2.7829,2.7873,2.7825,2.7936,2.7974,2.8053,2.8085,2.8039,2.8211,2.8247,2.84,2.8448,2.8483,2.8513,2.846,2.8673,2.8693,2.8712,2.8779,2.8806,2.8489,2.8488,2.8487,2.8487,0,2.7854,2.7941,2.8023,2.8096,2.8149,2.8253,2.8256,2.8311,2.8296,2.8308,2.8434,2.8475,2.8558,2.8593,2.8581,2.8745,2.8718,2.8673,2.8593,2.8746,2.8809,2.8835,2.8498,2.8496,2.8494,2.8492,0,0,2.8102,2.8164,2.8194,2.8226,2.8283,2.8351,2.8452,2.8531,2.8578,2.8634,2.8719,2.8836,2.8794,2.884,2.8831,2.8904,2.9058,2.8849,2.8851,2.8887,2.924,2.9274,2.9304,2.9036,2.9041,2.9045,2.9235,0,2.829,2.8463,2.8453,2.8617,2.8698,2.8653,2.8741,2.8786,2.8799,2.8871,2.8886,2.8969,2.8907,2.8934,2.9004,2.9024,2.9129,2.901,2.9116,2.912,2.9103,2.9337,2.9374,2.9552,2.926,2.9264,2.9267,0,2.8533,2.8593,2.8765,2.8807,2.8841,2.892,2.899,2.9058,2.9109,2.9113,2.9162,2.9141,2.9244,2.916,2.9302,2.9222,2.9265,2.9281,2.9288,2.9298,2.9204,2.9354,2.9608,2.9635,2.9306,2.9303,2.93,0,2.8696,2.882,2.8938,2.8968,2.9021,2.9077,2.9102,2.9147,2.9194,2.9256,2.9286,2.936,2.9401,2.946,2.946,2.9398,2.9604,2.9519,2.9611,2.9611,2.9658,2.9655,2.9923,2.9685,2.9684,2.9684,2.9683,0,2.8907,2.9014,2.9012,2.9085,2.9203,2.919,2.9308,2.9327,2.9367,2.9443,2.941,2.9483,2.9478,2.9552,2.9553,2.967,2.9689,2.9697,2.9696,2.97,2.9699,2.9729,2.9717,2.9691,2.9689,2.9688,2.9687,0,2.911,2.9113,2.9239,2.9277,2.9289,2.9375,2.9408,2.9478,2.9487,2.9584,2.9607,2.9622,2.9707,2.9712,2.9812,2.9812,2.9955,2.994,2.9937,2.9935,3.0026,3.0018,3.0323,3.0362,3.0098,3.0101,3.0103,0,2.9245,2.9326,2.9372,2.9419,2.9447,2.9524,2.9571,2.9562,2.9612,2.9674,2.9736,2.9818,2.9882,3.0021,3.0043,3.0118,3.0105,3.0207,3.0117,3.0118,3.0107,3.0102,3.011,3.0225,3.0228,3.023,3.0232,0,2.9485,2.9481,2.9549,2.9617,2.9673,2.9727,2.9777,2.9819,2.9815,2.9874,2.9959,3.0009,3.0108,3.019,3.0263,3.0291,3.0262,3.026,3.0285,3.0291,3.0286,3.029,2.9986,3.0254,3.0251,3.025,3.0249,3.0248,2.9658,2.9726,2.9769,2.9845,2.9881,2.9928,2.9994,3.001,3.0081,3.0159,3.015,3.0244,3.0292,3.0386,3.0419,3.0494,3.046,3.0497,3.0506,3.0516,3.0525,3.0273,3.0508,3.0507,3.0507,3.0506,3.0506,0,2.9895,2.9919,2.999,3.0059,3.0119,3.0083,3.0136,3.0189,3.0272,3.0317,3.038,3.0478,3.0557,3.0583,3.0659,3.0714,3.0703,3.0735,3.0731,3.0738,3.0552,3.0522,3.0743,3.0743,3.0743,3.0742,3.0742,3.0742,3.0026,3.014,3.0141,3.0273,3.0297,3.0387,3.0421,3.0464,3.0499,3.0609,3.0673,3.0688,3.0726,3.0805,3.0875,3.0881,3.0911,3.0949,3.0949,3.0775,3.0751,3.0729,3.0701,3.0955,3.0955,3.1129,3.1131,3.1132]},{"header":{"parameterUnit":"m.s-1","parameterCategory":1,"la1":30.2991,"la2":30.254,"lo1":-89.0895,"lo2":-89.0444,"dy":0.0017,"dx":0.0017,"nx":28,"ny":28,"refTime":"2024-07-04T09:00:00:Z","depth":0,"parameterNumber":3,"parameterNumberName":"V-component_of_WINDS"},"data":[0,0,0,0,0,0,0,0,0,0,0,0,0,0,0,0,0,0,0,0,0,0,0,0,0,0,0,0,0,0,0,0,0,0,0,0,0,0,0,0,0,0,0,0,0,0,0,0,0,0,0,0,0,0,0,0,0,0,3.4074,3.4076,0,3.4286,3.4288,3.4291,3.4315,3.4313,3.431,3.4308,3.4521,3.4529,3.4536,0,0,0,0,0,0,0,0,0,0,0,0,0,3.3685,3.3692,3.4074,3.4076,3.4079,3.4286,3.4288,3.4291,3.4315,3.4312,3.431,3.4307,3.4519,3.4528,3.4537,0,0,0,0,0,0,0,0,0,0,0,0,0,3.3871,3.3695,3.4073,3.4116,3.4122,3.4285,3.4289,3.4292,3.4316,3.4312,3.4309,3.4306,3.4516,3.4527,3.4538,3.4672,0,0,3.4573,3.4578,0,0,0,0,0,0,0,0,3.3861,3.3885,3.4107,3.4113,3.412,3.4271,3.423,3.4419,3.4316,3.4242,3.4308,3.4305,3.444,3.4458,3.4504,3.4682,3.4691,3.4574,3.4581,3.4586,3.4589,0,0,0,0,0,0,0,3.3848,3.3876,3.4158,3.411,3.4118,3.4123,3.4146,3.4266,3.4356,3.4248,3.425,3.4275,3.4443,3.4493,3.4509,3.4694,3.4574,3.4584,3.4591,3.4596,3.4992,3.4995,0,0,0,0,0,0,3.3828,3.3866,3.4151,3.4164,3.398,3.4133,3.4158,3.4225,3.4355,3.4372,3.4278,3.4276,3.4475,3.4496,3.4517,3.4682,3.4586,3.4597,3.4603,3.4988,3.4993,3.4997,0,0,0,0,0,0,3.3819,3.3853,3.4142,3.4016,3.4053,3.4143,3.4218,3.4231,3.4281,3.4377,3.4393,3.4313,3.4473,3.4501,3.4634,3.469,3.4602,3.4612,3.4984,3.499,3.4995,3.5014,0,0,0,0,0,0,3.3808,3.385,3.3903,3.4017,3.4059,3.4257,3.4222,3.4238,3.4302,3.4301,3.4414,3.443,3.4473,3.4616,3.4645,3.4704,3.4621,3.4979,3.4987,3.4993,3.5008,3.5019,3.5028,0,0,0,0,0,3.3794,3.3899,3.3905,3.3939,3.4128,3.426,3.4284,3.4333,3.4306,3.4359,3.4421,3.4426,3.4679,3.463,3.4662,3.4726,3.4976,3.4985,3.4992,3.5004,3.5017,3.5028,0,0,0,0,0,0,3.3787,3.3914,3.3923,3.4068,3.4153,3.4264,3.4333,3.4346,3.4439,3.4434,3.449,3.4515,3.4645,3.4699,3.4641,3.4862,3.4825,3.484,3.4822,3.4835,3.4845,3.483,3.4631,0,0,0,0,0,3.3803,3.3901,3.4006,3.4124,3.4166,3.4242,3.4302,3.4332,3.4422,3.4458,3.4529,3.4615,3.4713,3.4777,3.4873,3.5016,3.504,3.5075,3.5085,3.5093,3.5105,3.5184,3.5201,3.5024,3.5024,3.5024,0,0,3.3836,3.3917,3.3976,3.4125,3.4194,3.4294,3.4272,3.4378,3.4452,3.4473,3.4603,3.4658,3.4758,3.4896,3.496,3.4944,3.516,3.5103,3.5109,3.5117,3.5194,3.5211,3.5226,3.5029,3.5028,3.5028,0,0,3.3947,3.4019,3.4125,3.4195,3.4301,3.4351,3.4376,3.4485,3.4523,3.4655,3.4673,3.476,3.4929,3.5,3.5057,3.5194,3.5202,3.5223,3.5275,3.5352,3.5365,3.5378,3.5427,3.5443,3.5235,3.5236,3.5236,0,3.3974,3.4126,3.4177,3.4283,3.4347,3.4372,3.4479,3.4545,3.4676,3.4719,3.47,3.4913,3.4981,3.5136,3.5169,3.5215,3.5245,3.5211,3.536,3.5373,3.5385,3.5432,3.545,3.5237,3.5237,3.5237,3.5237,0,3.4154,3.4259,3.4331,3.4459,3.4532,3.4637,3.4703,3.477,3.4794,3.4845,3.4978,3.5061,3.5175,3.5213,3.5237,3.5371,3.5358,3.5349,3.5313,3.5403,3.5448,3.5466,3.524,3.524,3.5239,3.5238,0,0,3.4267,3.4422,3.4448,3.4506,3.4625,3.4706,3.4812,3.4924,3.498,3.507,3.516,3.5302,3.5294,3.5359,3.5391,3.5458,3.556,3.544,3.5443,3.5459,3.5713,3.5719,3.5739,3.5566,3.557,3.5573,3.5704,0,3.4392,3.4583,3.4632,3.4795,3.4892,3.4916,3.5009,3.5091,3.5141,3.5229,3.5284,3.5384,3.5366,3.5406,3.5473,3.5533,3.5612,3.5525,3.5649,3.5653,3.5624,3.5763,3.577,3.5891,3.5722,3.5725,3.5727,0,3.4563,3.4657,3.483,3.4936,3.4978,3.5061,3.5167,3.5252,3.5344,3.5376,3.5449,3.5475,3.5584,3.5543,3.5694,3.5634,3.5687,3.5725,3.573,3.5744,3.5696,3.578,3.593,3.5948,3.5756,3.5753,3.5751,0,3.4628,3.4798,3.4923,3.4972,3.5099,3.5156,3.5211,3.5301,3.5365,3.5458,3.55,3.5603,3.566,3.5738,3.579,3.5755,3.5937,3.59,3.5966,3.5965,3.6003,3.6,3.6164,3.6038,3.6038,3.6037,3.6037,0,3.4762,3.4866,3.4954,3.5031,3.5149,3.5203,3.5317,3.5373,3.5453,3.554,3.5567,3.5648,3.5711,3.58,3.5841,3.596,3.5985,3.6013,3.6023,3.6011,3.6008,3.6047,3.604,3.6042,3.6041,3.604,3.6039,0,3.4854,3.4918,3.5056,3.5165,3.5194,3.5276,3.5369,3.5444,3.5494,3.5604,3.5633,3.5713,3.5819,3.5879,3.6012,3.6039,3.6172,3.6177,3.6141,3.6145,3.6208,3.6201,3.6403,3.6432,3.6286,3.6287,3.6289,0,3.4936,3.5017,3.5135,3.5196,3.5252,3.535,3.5416,3.5472,3.5539,3.5651,3.5712,3.582,3.591,3.6079,3.6147,3.6249,3.6257,3.6321,3.6272,3.6258,3.6258,3.6252,3.626,3.6329,3.633,3.6331,3.6332,0,3.5074,3.5101,3.5196,3.5302,3.538,3.5465,3.555,3.5598,3.5668,3.5742,3.5852,3.5921,3.6058,3.6165,3.6272,3.6327,3.6341,3.6347,3.6368,3.6356,3.6332,3.6346,3.6164,3.6342,3.6341,3.634,3.634,3.6339,3.5164,3.5237,3.5331,3.5435,3.5505,3.5584,3.566,3.5721,3.5814,3.593,3.5957,3.6072,3.6162,3.6308,3.6366,3.6456,3.6444,3.6474,3.6482,3.6488,3.649,3.6318,3.6476,3.6475,3.6475,3.6475,3.6475,0,3.5302,3.5364,3.546,3.5578,3.566,3.5668,3.5762,3.5829,3.5931,3.6014,3.6102,3.6228,3.6331,3.6408,3.6514,3.6571,3.658,3.6597,3.6593,3.6605,3.6495,3.6467,3.6588,3.6588,3.6588,3.6588,3.6588,3.6587,3.5384,3.5509,3.5547,3.5706,3.5767,3.5881,3.5934,3.6006,3.6073,3.6213,3.63,3.6349,3.643,3.6541,3.6636,3.6656,3.6693,3.6709,3.673,3.6625,3.6613,3.6602,3.6575,3.6717,3.6717,3.6833,3.6834,3.6834]}]]